Radiation Dose at Monitoring Post of Fukushima Daini Nuclear Power Station
Date,Time,MP-1(microSv/h),MP-2(microSv/h),MP-3(microSv/h),MP-4(microSv/h),MP-5(microSv/h),MP-6(microSv/h),MP-7(microSv/h),Wind Direction,Wind Velocity(m/s),Rain
2018/12/12,00:00,0.232,0.192,0.305,0.293,0.277,0.155,0.096,northwest,4.4,No
2018/12/12,00:10,0.231,0.193,0.306,0.293,0.279,0.156,0.095,northwest,3.3,Yes
2018/12/12,00:20,0.231,0.193,0.304,0.293,0.278,0.155,0.096,north-northwest,2.5,Yes
2018/12/12,00:30,0.230,0.192,0.303,0.292,0.278,0.156,0.095,north-northwest,2.0,Yes
2018/12/12,00:40,0.231,0.192,0.304,0.292,0.278,0.156,0.095,north-northwest,2.9,Yes
2018/12/12,00:50,0.230,0.191,0.304,0.292,0.277,0.155,0.095,north-northwest,4.3,Yes
2018/12/12,01:00,0.231,0.192,0.304,0.292,0.278,0.155,0.096,north-northwest,4.1,Yes
2018/12/12,01:10,0.230,0.190,0.301,0.291,0.277,0.155,0.095,northwest,4.4,Yes
2018/12/12,01:20,0.232,0.191,0.304,0.292,0.279,0.155,0.096,northwest,4.8,Yes
2018/12/12,01:30,0.232,0.192,0.304,0.291,0.278,0.155,0.096,northwest,4.8,Yes
2018/12/12,01:40,0.231,0.193,0.305,0.291,0.278,0.156,0.096,northwest,5.7,Yes
2018/12/12,01:50,0.232,0.193,0.304,0.292,0.278,0.156,0.097,north-northwest,4.6,Yes
2018/12/12,02:00,0.231,0.194,0.305,0.292,0.278,0.157,0.097,north-northwest,5.1,Yes
2018/12/12,02:10,0.232,0.193,0.303,0.292,0.278,0.156,0.097,northwest,5.1,Yes
2018/12/12,02:20,0.233,0.193,0.305,0.291,0.277,0.156,0.097,northwest,5.6,Yes
2018/12/12,02:30,0.230,0.193,0.304,0.291,0.277,0.156,0.097,northwest,5.2,Yes
2018/12/12,02:40,0.230,0.193,0.303,0.290,0.277,0.156,0.096,north-northwest,5.0,Yes
2018/12/12,02:50,0.231,0.192,0.301,0.292,0.277,0.155,0.096,north-northwest,6.2,Yes
2018/12/12,03:00,0.231,0.193,0.304,0.292,0.278,0.156,0.096,northwest,7.1,Yes
2018/12/12,03:10,0.231,0.193,0.304,0.292,0.277,0.155,0.096,northwest,7.1,Yes
2018/12/12,03:20,0.231,0.194,0.303,0.291,0.278,0.156,0.098,north,9.5,Yes
2018/12/12,03:30,0.232,0.195,0.303,0.290,0.279,0.157,0.098,northwest,8.6,Yes
2018/12/12,03:40,0.233,0.194,0.303,0.291,0.277,0.158,0.099,northwest,8.7,Yes
2018/12/12,03:50,0.231,0.195,0.303,0.291,0.279,0.158,0.099,northwest,9.5,Yes
2018/12/12,04:00,0.231,0.194,0.303,0.291,0.279,0.157,0.100,northwest,9.2,No
2018/12/12,04:10,0.230,0.193,0.302,0.291,0.278,0.156,0.099,northwest,8.5,No
2018/12/12,04:20,0.230,0.193,0.302,0.289,0.277,0.155,0.097,northwest,8.7,No
2018/12/12,04:30,0.229,0.192,0.300,0.291,0.277,0.154,0.097,northwest,9.8,Yes
2018/12/12,04:40,0.231,0.194,0.302,0.290,0.277,0.156,0.098,north-northwest,9.6,Yes
2018/12/12,04:50,0.231,0.194,0.301,0.290,0.278,0.157,0.099,north-northwest,9.0,Yes
2018/12/12,05:00,0.231,0.195,0.301,0.290,0.279,0.158,0.100,north-northwest,10.0,Yes
2018/12/12,05:10,0.233,0.195,0.301,0.290,0.281,0.158,0.100,northwest,10.3,Yes
2018/12/12,05:20,0.232,0.195,0.301,0.291,0.280,0.158,0.100,north,6.5,Yes
2018/12/12,05:30,0.233,0.194,0.300,0.288,0.279,0.159,0.101,north-northwest,11.1,Yes
2018/12/12,05:40,0.232,0.197,0.301,0.288,0.281,0.159,0.102,northwest,10.6,Yes
2018/12/12,05:50,0.234,0.196,0.302,0.289,0.282,0.159,0.103,north-northwest,12.6,Yes
2018/12/12,06:00,0.233,0.196,0.300,0.289,0.281,0.160,0.103,northwest,11.2,Yes
2018/12/12,06:10,0.233,0.198,0.301,0.290,0.281,0.160,0.103,northwest,9.2,Yes
2018/12/12,06:20,0.232,0.196,0.303,0.289,0.282,0.160,0.103,northwest,10.1,Yes
2018/12/12,06:30,0.232,0.197,0.302,0.289,0.281,0.158,0.101,north-northwest,10.7,No
2018/12/12,06:40,0.231,0.195,0.301,0.288,0.281,0.157,0.101,north-northwest,10.0,No
2018/12/12,06:50,0.231,0.194,0.300,0.288,0.280,0.154,0.100,north-northwest,9.8,No
2018/12/12,07:00,0.230,0.193,0.298,0.287,0.280,0.155,0.098,northwest,10.9,No
2018/12/12,07:10,0.229,0.190,0.299,0.287,0.278,0.154,0.098,northwest,11.1,No
2018/12/12,07:20,0.227,0.191,0.298,0.285,0.279,0.152,0.097,northwest,10.6,No
2018/12/12,07:30,0.228,0.191,0.298,0.285,0.278,0.152,0.096,northwest,10.3,No
2018/12/12,07:40,0.227,0.190,0.297,0.287,0.278,0.151,0.095,northwest,9.5,No
2018/12/12,07:50,0.228,0.190,0.297,0.285,0.276,0.151,0.094,northwest,8.6,No
2018/12/12,08:00,0.226,0.189,0.297,0.284,0.275,0.151,0.093,northwest,9.2,No
2018/12/12,08:10,0.227,0.188,0.296,0.283,0.276,0.151,0.094,northwest,9.5,No
2018/12/12,08:20,0.226,0.188,0.296,0.285,0.276,0.150,0.093,northwest,8.7,No
2018/12/12,08:30,0.225,0.188,0.297,0.284,0.275,0.150,0.093,northwest,8.1,No
2018/12/12,08:40,0.227,0.189,0.297,0.284,0.276,0.150,0.094,northwest,7.7,Yes
2018/12/12,08:50,0.227,0.190,0.298,0.287,0.277,0.151,0.095,northwest,8.7,No
2018/12/12,09:00,0.231,0.189,0.298,0.287,0.277,0.151,0.095,northwest,8.7,No
2018/12/12,09:10,0.231,0.190,0.297,0.285,0.277,0.152,0.094,northwest,8.2,No
2018/12/12,09:20,0.234,0.190,0.297,0.285,0.276,0.150,0.094,northwest,7.3,No
2018/12/12,09:30,0.233,0.189,0.297,0.286,0.277,0.151,0.093,northwest,5.3,No
2018/12/12,09:40,0.230,0.188,0.296,0.285,0.275,0.149,0.093,northwest,5.6,No
2018/12/12,09:50,0.232,0.189,0.297,0.285,0.275,0.151,0.093,northwest,6.1,No
2018/12/12,10:00,0.233,0.188,0.296,0.284,0.275,0.150,0.093,northwest,7.0,No
2018/12/12,10:10,0.233,0.187,0.295,0.286,0.276,0.151,0.094,northwest,5.6,Yes
2018/12/12,10:20,0.233,0.189,0.298,0.286,0.276,0.151,0.095,northwest,5.6,No
2018/12/12,10:30,0.230,0.189,0.297,0.285,0.276,0.150,0.094,north-northwest,4.6,No
2018/12/12,10:40,0.228,0.189,0.297,0.284,0.275,0.150,0.094,north-northwest,4.2,No
2018/12/12,10:50,0.229,0.187,0.297,0.286,0.276,0.150,0.093,north-northwest,3.2,No
2018/12/12,11:00,0.229,0.188,0.296,0.284,0.275,0.150,0.093,north-northwest,3.4,No
2018/12/12,11:10,0.228,0.187,0.296,0.284,0.275,0.150,0.093,north-northwest,3.3,No
2018/12/12,11:20,0.227,-,0.297,0.285,0.275,0.150,0.093,north-northwest,3.4,No
2018/12/12,11:30,0.229,-,0.298,0.284,0.275,0.150,0.092,north-northwest,3.0,No
2018/12/12,11:40,0.231,-,0.297,0.284,0.275,0.150,0.092,north-northwest,2.6,No
2018/12/12,11:50,0.231,-,0.296,0.285,0.276,0.150,0.092,north-northwest,3.0,No
2018/12/12,12:00,0.229,-,0.297,0.283,0.275,0.149,0.092,north-northwest,3.7,No
2018/12/12,12:10,0.230,-,0.295,0.284,0.275,0.150,0.092,north,3.9,No
2018/12/12,12:20,0.230,-,0.297,0.285,0.276,0.150,0.092,north,4.3,No
2018/12/12,12:30,0.229,-,0.296,0.283,0.276,0.149,0.092,north,6.0,No
2018/12/12,12:40,0.230,-,0.296,0.285,0.277,0.149,0.092,north-northwest,4.7,No
2018/12/12,12:50,0.231,-,0.297,0.285,0.277,0.150,0.093,north,4.4,No
2018/12/12,13:00,0.229,-,0.296,0.285,0.274,0.150,0.093,north,4.7,No
2018/12/12,13:10,0.231,-,0.296,0.285,0.277,0.151,0.092,north,5.2,No
2018/12/12,13:20,0.229,-,0.298,0.285,0.277,0.151,0.093,north,5.3,No
2018/12/12,13:30,0.230,-,0.297,0.285,0.276,0.150,0.093,north,4.7,No
2018/12/12,13:40,0.230,-,0.297,0.285,0.278,0.150,0.093,north,4.2,No
2018/12/12,13:50,0.231,-,0.298,0.284,0.277,0.150,0.093,north,3.7,No
2018/12/12,14:00,0.229,-,0.296,0.284,0.277,0.148,0.092,north,4.1,No
2018/12/12,14:10,0.231,-,0.297,0.286,0.274,0.149,0.092,north,3.6,No
2018/12/12,14:20,0.233,-,0.297,0.287,0.276,0.149,0.093,west-northwest,5.3,No
2018/12/12,14:30,0.234,-,0.296,0.283,0.273,0.150,0.092,northwest,5.8,No
2018/12/12,14:40,0.233,-,0.299,0.287,0.275,0.148,0.093,north-northwest,5.8,No
2018/12/12,14:50,0.231,-,0.297,0.285,0.276,0.150,0.092,northwest,6.6,No
2018/12/12,15:00,0.229,-,0.297,0.285,0.276,0.150,0.092,northwest,5.9,No
2018/12/12,15:10,0.229,-,0.299,0.287,0.277,0.149,0.092,northwest,4.9,No
2018/12/12,15:20,0.229,-,0.298,0.285,0.277,0.150,0.094,northwest,5.3,No
2018/12/12,15:30,0.232,-,0.297,0.287,0.278,0.150,0.092,northwest,7.1,No
2018/12/12,15:40,0.231,-,0.299,0.285,0.276,0.149,0.092,west-northwest,7.4,No
2018/12/12,15:50,0.233,0.185,0.297,0.285,0.275,0.150,0.093,west-northwest,10.3,No
2018/12/12,16:00,0.233,0.185,0.297,0.286,0.276,0.150,0.092,west-northwest,12.2,No
2018/12/12,16:10,0.232,0.185,0.299,0.286,0.277,0.151,0.092,northwest,9.5,No
2018/12/12,16:20,0.233,0.186,0.299,0.287,0.276,0.150,0.092,west-northwest,10.6,No
2018/12/12,16:30,0.234,0.185,0.299,0.287,0.277,0.152,0.092,west-northwest,7.8,No
2018/12/12,16:40,0.233,0.186,0.300,0.286,0.277,0.152,0.092,west-northwest,5.8,No
2018/12/12,16:50,0.231,0.187,0.300,0.287,0.275,0.151,0.092,northwest,8.1,No
2018/12/12,17:00,0.231,0.187,0.299,0.287,0.276,0.150,0.092,northwest,8.4,No
2018/12/12,17:10,0.232,0.186,0.300,0.287,0.276,0.152,0.092,northwest,10.6,No
2018/12/12,17:20,0.231,0.187,0.300,0.288,0.276,0.151,0.093,northwest,8.2,No
2018/12/12,17:30,0.231,0.186,0.298,0.286,0.276,0.150,0.092,north-northwest,7.5,No
2018/12/12,17:40,0.232,0.186,0.297,0.286,0.275,0.151,0.092,northwest,8.4,No
2018/12/12,17:50,0.231,0.187,0.299,0.286,0.275,0.150,0.093,north-northwest,7.8,No
2018/12/12,18:00,0.230,0.187,0.298,0.287,0.276,0.151,0.092,northwest,8.2,No
2018/12/12,18:10,0.231,0.186,0.299,0.286,0.276,0.150,0.093,northwest,6.3,No
2018/12/12,18:20,0.230,0.186,0.299,0.286,0.276,0.150,0.092,west-northwest,5.3,No
2018/12/12,18:30,0.231,0.187,0.300,0.288,0.276,0.151,0.092,northwest,7.1,No
2018/12/12,18:40,0.233,0.186,0.298,0.286,0.276,0.150,0.092,northwest,7.4,No
2018/12/12,18:50,0.232,0.185,0.298,0.286,0.276,0.150,0.093,northwest,10.3,No
2018/12/12,19:00,0.232,0.185,0.300,0.287,0.276,0.150,0.092,northwest,10.1,No
2018/12/12,19:10,0.231,0.186,0.300,0.288,0.275,0.150,0.092,northwest,8.8,No
2018/12/12,19:20,0.232,0.186,0.299,0.287,0.278,0.150,0.093,northwest,10.0,No
2018/12/12,19:30,0.232,0.187,0.298,0.287,0.276,0.151,0.093,northwest,8.4,No
2018/12/12,19:40,0.232,0.187,0.301,0.287,0.276,0.151,0.093,northwest,6.2,No
2018/12/12,19:50,0.232,0.187,0.300,0.288,0.276,0.151,0.092,northwest,5.4,No
2018/12/12,20:00,0.232,0.186,0.300,0.286,0.277,0.151,0.093,west-northwest,5.0,No
2018/12/12,20:10,0.232,0.187,0.299,0.287,0.277,0.151,0.093,northwest,5.8,No
2018/12/12,20:20,0.232,0.188,0.299,0.287,0.278,0.151,0.092,west-northwest,6.1,No
2018/12/12,20:30,0.231,0.187,0.299,0.287,0.275,0.151,0.092,west-northwest,5.7,No
2018/12/12,20:40,0.232,0.186,0.300,0.287,0.277,0.152,0.092,west-northwest,5.2,No
2018/12/12,20:50,0.233,0.186,0.300,0.288,0.277,0.151,0.093,northwest,6.5,No
2018/12/12,21:00,0.232,0.186,0.299,0.288,0.275,0.151,0.093,northwest,7.3,No
2018/12/12,21:10,0.231,0.188,0.301,0.287,0.275,0.151,0.093,northwest,7.0,No
2018/12/12,21:20,0.232,0.186,0.300,0.288,0.275,0.150,0.093,west-northwest,6.9,No
2018/12/12,21:30,0.233,0.186,0.299,0.287,0.277,0.151,0.093,west-northwest,6.7,No
2018/12/12,21:40,0.233,0.186,0.300,0.288,0.275,0.151,0.093,northwest,6.8,No
2018/12/12,21:50,0.232,0.188,0.299,0.287,0.276,0.151,0.093,west-northwest,7.7,No
2018/12/12,22:00,0.232,0.187,0.300,0.287,0.276,0.151,0.093,west-northwest,7.0,No
2018/12/12,22:10,0.233,0.186,0.299,0.288,0.275,0.150,0.093,west-northwest,7.0,No
2018/12/12,22:20,0.233,0.187,0.301,0.287,0.275,0.152,0.093,west-northwest,8.1,No
2018/12/12,22:30,0.231,0.187,0.301,0.289,0.277,0.152,0.094,west-northwest,8.2,No
2018/12/12,22:40,0.232,0.187,0.300,0.291,0.277,0.152,0.094,west-northwest,7.4,No
2018/12/12,22:50,0.233,0.186,0.301,0.287,0.276,0.151,0.094,west-northwest,7.1,No
2018/12/12,23:00,0.231,0.187,0.301,0.288,0.276,0.152,0.093,west-northwest,6.5,No
2018/12/12,23:10,0.233,0.186,0.301,0.288,0.277,0.151,0.093,west-northwest,6.0,No
2018/12/12,23:20,0.232,0.188,0.301,0.288,0.277,0.151,0.093,northwest,6.4,No
2018/12/12,23:30,0.232,0.186,0.301,0.290,0.277,0.152,0.092,northwest,7.0,No
2018/12/12,23:40,0.232,0.186,0.302,0.288,0.276,0.151,0.092,northwest,6.6,No
2018/12/12,23:50,0.233,0.187,0.301,0.287,0.275,0.151,0.093,north-northwest,8.2,No
